N751CF KCQX-KCQX

Flight info

Callsign N751CF
Flight time N/A
Altitude 3000
Route DCT
Aircraft PC12/L-V/N

Departure

Time 2026-05-08 01:47
Airport Chatham Municipal Airport (KCQX)

Arrival

Time N/A
Airport Chatham Municipal Airport (KCQX)
Time Latitude Longitude Altitude Speed Heading
2026-05-08 01:42 41.68788 -69.99225 61 ft 0 kts 225°
2026-05-08 01:44 41.68777 -69.99231 58 ft 6 kts 182°
2026-05-08 01:44 41.68728 -69.99181 57 ft 7 kts 143°
2026-05-08 01:44 41.68692 -69.99212 53 ft 9 kts 224°
2026-05-08 01:45 41.68629 -69.99293 52 ft 15 kts 224°
2026-05-08 01:45 41.68565 -69.99365 50 ft 7 kts 184°
2026-05-08 01:45 41.68544 -69.99325 50 ft 1 kts 46°
2026-05-08 01:45 41.68577 -69.99283 51 ft 25 kts 43°
2026-05-08 01:46 41.68836 -69.98954 58 ft 77 kts 44°
2026-05-08 01:46 41.69300 -69.98367 215 ft 101 kts 43°
2026-05-08 01:46 41.69867 -69.97691 435 ft 114 kts 31°
2026-05-08 01:46 41.70700 -69.97574 626 ft 131 kts 348°
2026-05-08 01:47 41.71634 -69.97816 982 ft 143 kts 345°
2026-05-08 01:47 41.72622 -69.98164 1392 ft 152 kts 342°
2026-05-08 01:47 41.73674 -69.98547 1796 ft 159 kts 344°
2026-05-08 01:48 41.75136 -69.99063 2075 ft 180 kts 344°
2026-05-08 01:48 41.76399 -69.99508 2056 ft 195 kts 344°
2026-05-08 01:48 41.77727 -69.99984 2078 ft 197 kts 344°
2026-05-08 01:48 41.79078 -70.00477 2048 ft 205 kts 344°
2026-05-08 01:49 41.80478 -70.00706 2060 ft 209 kts
2026-05-08 01:49 41.81881 -70.00192 2061 ft 207 kts 15°
2026-05-08 01:49 41.83248 -69.99671 2047 ft 199 kts
2026-05-08 01:49 41.84558 -69.99881 2061 ft 188 kts 347°
2026-05-08 01:50 41.85811 -70.00255 2049 ft 181 kts 346°
2026-05-08 01:50 41.87015 -70.00626 2072 ft 176 kts 346°
2026-05-08 01:50 41.88231 -70.01008 2055 ft 181 kts 345°
2026-05-08 01:50 41.89445 -70.01388 2056 ft 176 kts 345°
2026-05-08 01:51 41.90633 -70.01757 2057 ft 175 kts 345°
2026-05-08 01:51 41.91428 -70.02004 2079 ft 179 kts 345°
2026-05-08 01:51 41.93077 -70.02516 2068 ft 185 kts 346°
2026-05-08 01:51 41.94334 -70.02909 2065 ft 186 kts 345°
2026-05-08 01:52 41.95161 -70.03166 2064 ft 182 kts 345°
2026-05-08 01:52 41.96384 -70.03542 2061 ft 177 kts 346°
2026-05-08 01:52 41.97951 -70.04024 2067 ft 172 kts 345°
2026-05-08 01:52 41.99113 -70.04379 2069 ft 172 kts 345°
2026-05-08 01:53 41.99884 -70.04615 2065 ft 171 kts 346°
2026-05-08 01:53 42.01001 -70.05060 2067 ft 164 kts 331°
2026-05-08 01:53 42.01956 -70.05876 2073 ft 162 kts 326°
2026-05-08 01:53 42.02880 -70.06727 2083 ft 161 kts 325°
2026-05-08 01:54 42.03756 -70.07533 2067 ft 142 kts 326°
2026-05-08 01:54 42.04606 -70.08315 2079 ft 152 kts 326°
2026-05-08 01:54 42.05494 -70.09132 2079 ft 156 kts 326°
2026-05-08 01:54 42.06353 -70.10052 2086 ft 163 kts 306°
2026-05-08 01:55 42.06647 -70.11546 2077 ft 168 kts 280°
2026-05-08 01:55 42.06820 -70.13094 2133 ft 163 kts 287°
2026-05-08 01:55 42.07189 -70.14476 2108 ft 155 kts 293°
2026-05-08 01:55 42.07597 -70.15725 2122 ft 136 kts 305°
2026-05-08 01:56 42.08242 -70.16625 1906 ft 132 kts 316°
2026-05-08 01:56 42.08770 -70.17505 1512 ft 112 kts 289°
2026-05-08 01:56 42.08518 -70.18507 1025 ft 120 kts 248°
2026-05-08 01:56 42.08306 -70.19485 726 ft 100 kts 251°
2026-05-08 01:57 42.08015 -70.20290 428 ft 93 kts 237°
2026-05-08 01:57 42.07698 -70.21009 190 ft 88 kts 234°
2026-05-08 01:57 42.07404 -70.21681 19 ft 74 kts 234°
2026-05-08 01:57 42.07214 -70.22108 9 ft 24 kts 240°
2026-05-08 01:58 42.07145 -70.22313 9 ft 24 kts 269°
2026-05-08 01:58 42.07226 -70.22417 13 ft 17 kts 19°
2026-05-08 01:58 42.07293 -70.22289 13 ft 17 kts 59°
2026-05-08 01:58 42.07356 -70.22148 13 ft 18 kts 58°
2026-05-08 01:59 42.07416 -70.22009 14 ft 17 kts 59°
2026-05-08 01:59 42.07477 -70.21872 13 ft 18 kts 59°
2026-05-08 01:59 42.07539 -70.21729 14 ft 17 kts 60°
2026-05-08 01:59 42.07592 -70.21649 13 ft 6 kts 315°
2026-05-08 02:00 42.07591 -70.21666 13 ft 0 kts 237°